Location: Newark
(50.0306°N, 2.3272°E)
Time: 02:44:55
(UTC+00:00)

Vanguard 1 - Pass Details

Date: 19 December 2019
Orbit: 651 x 3832 km, 34.2° (Epoch: 23 January)

Event Time Altitude Azimuth Distance (km) Brightness Sun altitude
Exits shadow 01:42:12 39° 145° (SE) 4,858 13.3 -55.2°
Drops below altitude 10° 02:00:31 10° 94° (E) 6,652 14.6 -52.9°
Sets 02:05:41 0° 87° (E) 7,418 15.0 -52.2°
